Weather History for KADS - March, 2014

Change the Weather History Date:

Monday, March 24, 2014

  Actual Average Record
Temperature  
Mean Temperature 53 °F -  
Max Temperature 67 °F 66 °F 83 °F (2015)
Min Temperature 42 °F 49 °F 35 °F (2006)
Degree Days  
Heating Degree Days 12    
Growing Degree Days 3 (Base 50)    
Moisture  
Dew Point 30 °F    
Average Humidity 43    
Maximum Humidity 57    
Minimum Humidity 32    
Precipitation  
Precipitation 0.00 in - - ()
Sea Level Pressure  
Sea Level Pressure 30.18 in    
Wind  
Wind Speed 6 mph (ENE)    
Max Wind Speed 13 mph    
Max Gust Speed -    
Visibility 11 miles    
Events      
Averages and records for this station are not official NWS values.
T = Trace of Precipitation, MM = Missing Value Source: NWS Daily Summary

Daily Weather History Graph

Daily Weather History Graph

Search for Another Location

Airport or City:

Trip Planner

Search our weather history database for the weather conditions in past years. The results will help you decide how hot, cold, wet, or windy it might be!

Date:

Astronomy

Mar. 24, 2014 Rise Set
Actual Time 7:25 AM CDT 7:41 PM CDT
Civil Twilight 7:01 AM CDT 8:06 PM CDT
Nautical Twilight 6:32 AM CDT 8:35 PM CDT
Astronomical Twilight 6:02 AM CDT 9:04 PM CDT
Moon 2:39 AM CDT (3/24) 1:25 PM CDT (3/24)
Length of Visible Light 13h 05m
Length of Day
12h 16m
Last Quarter, 43% of the Moon is Illuminated
Mar 24
Last Quarter
Mar 30
New
Apr 7
First Quarter
Apr 15
Full
Apr 22
Last Quarter

Hourly Weather History & Observations

Time (CDT) Temp. Windchill Dew Point Humidity Pressure Visibility Wind Dir Wind Speed Gust Speed Precip Events Conditions
12:15 AM 48.4 °F - 25.2 °F 40% 30.27 in 10.0 mi NE 5.8 mph - N/A   Clear
12:35 AM 48.2 °F - 24.4 °F 39% 30.27 in 10.0 mi NE 5.8 mph - N/A   Clear
12:55 AM 47.5 °F - 24.8 °F 41% 30.27 in 10.0 mi NE 4.6 mph - N/A   Clear
1:15 AM 47.1 °F - 24.8 °F 42% 30.26 in 10.0 mi NE 5.8 mph - N/A   Clear
1:35 AM 46.9 °F - 24.4 °F 41% 30.25 in 10.0 mi NE 4.6 mph - N/A   Clear
1:55 AM 46.8 °F - 24.3 °F 41% 30.25 in 10.0 mi NE 4.6 mph - N/A   Clear
2:15 AM 46.4 °F 45.2 °F 24.4 °F 42% 30.24 in 10.0 mi ENE 3.5 mph - N/A   Clear
2:35 AM 46.0 °F 44.8 °F 24.8 °F 43% 30.24 in 10.0 mi ENE 3.5 mph - N/A   Clear
2:55 AM 45.7 °F 43.4 °F 25.3 °F 45% 30.23 in 10.0 mi ENE 4.6 mph - N/A   Clear
3:15 AM 45.3 °F 43.0 °F 25.5 °F 46% 30.22 in 10.0 mi ENE 4.6 mph - N/A   Clear
3:35 AM 45.0 °F 42.6 °F 25.9 °F 47% 30.21 in 10.0 mi ENE 4.6 mph - N/A   Clear
3:55 AM 44.6 °F 41.4 °F 26.2 °F 49% 30.21 in 10.0 mi ENE 5.8 mph - N/A   Clear
4:15 AM 45.0 °F 42.6 °F 25.7 °F 47% 30.20 in 10.0 mi East 4.6 mph - N/A   Clear
4:35 AM 44.8 °F 41.0 °F 25.7 °F 47% 30.19 in 10.0 mi ENE 6.9 mph - N/A   Clear
4:55 AM 44.6 °F 39.7 °F 25.9 °F 48% 30.19 in 10.0 mi ENE 9.2 mph - N/A   Clear
5:15 AM 44.1 °F 40.8 °F 26.2 °F 50% 30.19 in 10.0 mi ENE 5.8 mph - N/A   Clear
5:35 AM 43.3 °F 39.9 °F 26.8 °F 52% 30.19 in 10.0 mi ENE 5.8 mph - N/A   Clear
6:47 AM 42.8 °F 40.1 °F 26.6 °F 53% 30.20 in 13.0 mi ENE 4.6 mph - N/A   Partly Cloudy
7:47 AM 42.8 °F 40.1 °F 28.4 °F 57% 30.20 in 13.0 mi East 4.6 mph - N/A   Partly Cloudy
8:47 AM 46.4 °F 41.9 °F 30.2 °F 53% 30.21 in 13.0 mi ESE 9.2 mph - N/A   Scattered Clouds
9:47 AM 51.8 °F - 28.4 °F 41% 30.21 in 13.0 mi SE 12.7 mph - N/A   Scattered Clouds
10:47 AM 53.6 °F - 26.6 °F 35% 30.20 in 10.0 mi ESE 11.5 mph - N/A   Scattered Clouds
11:47 AM 57.2 °F - 30.2 °F 36% 30.18 in 13.0 mi SE 5.8 mph - N/A   Scattered Clouds
12:48 PM 59.0 °F - 30.2 °F 34% 30.15 in 13.0 mi ESE 4.6 mph - N/A   Scattered Clouds
1:47 PM 59.0 °F - 32.0 °F 36% 30.12 in 13.0 mi SSE 5.8 mph - N/A   Scattered Clouds
2:47 PM 62.6 °F - 33.8 °F 34% 30.08 in 13.0 mi NW 8.1 mph - N/A   Scattered Clouds
3:47 PM 62.6 °F - 35.6 °F 37% 30.06 in 13.0 mi Calm Calm - N/A   Scattered Clouds
4:48 PM 64.4 °F - 33.8 °F 32% 30.04 in 13.0 mi NW 5.8 mph - N/A   Partly Cloudy
5:47 PM 64.4 °F - 35.6 °F 34% 30.05 in 13.0 mi NNW 9.2 mph - N/A   Clear
6:47 PM 64.4 °F - 37.4 °F 37% 30.07 in 13.0 mi North 8.1 mph - N/A   Clear
7:47 PM 62.6 °F - 37.4 °F 39% 30.08 in 13.0 mi ENE 8.1 mph - N/A   Clear
8:47 PM 60.8 °F - 37.4 °F 42% 30.10 in 13.0 mi Calm Calm - N/A   Clear
9:53 PM 60.8 °F - 37.4 °F 42% - - North - - N/A   Clear
10:15 PM 59.4 °F - 37.0 °F 43% 30.15 in 10.0 mi East 4.6 mph - N/A   Clear
10:35 PM 57.9 °F - 36.3 °F 44% 30.16 in 10.0 mi East 4.6 mph - N/A   Clear
10:55 PM 57.2 °F - 35.6 °F 44% 30.16 in 10.0 mi ESE 3.5 mph - N/A   Clear
11:15 PM 57.0 °F - 35.1 °F 44% 30.16 in 10.0 mi ESE 3.5 mph - N/A   Clear
11:35 PM 56.7 °F - 35.4 °F 45% 30.17 in 10.0 mi ESE 3.5 mph - N/A   Clear
11:55 PM 55.8 °F - 35.6 °F 47% 30.17 in 10.0 mi ESE 3.5 mph - N/A   Clear